カタログに戻る

ONEWEB-0562

運用中通信PO
NORAD 55799·PAYLOAD·🇬🇧 United Kingdom

打ち上げ Mar 9, 2023 から Cape Canaveral Space Force Station

Loading…

次のパス (今後24時間)

TLE

最新Source: CelesTrak SupGP

元期: Sep 14, 2026, 08:04 UTC

1 55799C 23029D   26257.33664769  .00002972  00000+0  73180-2 0  2574
2 55799  87.9137 256.6635 0002685 103.1471   9.7506 13.20766682    12

AllMySatでONEWEB-0562をリアルタイム追跡

Download on the App Store